This is the latest recevied weather packets stored in our database for station/object KC7WRB. If no packets are shown the sender has not sent any weather packets the latest 10 day(s).
| Time | Temp. | Humidity | Pressure | Rain* | Wind** | Luminosity | Snow |
|---|---|---|---|---|---|---|---|
| 1778373271 | 27.22° C | 13% | 1017.6 hPa | 0 mm | - | 330 W/m² | - |
| 1778372970 | 27.22° C | 12% | 1017.7 hPa | 0 mm | - | 349 W/m² | - |
| 1778372667 | 27.22° C | 12% | 1017.6 hPa | 0 mm | - | 367 W/m² | - |
| 1778372364 | 27.78° C | 11% | 1017.7 hPa | 0 mm | - | 385 W/m² | - |
| 1778372061 | 27.22° C | 12% | 1017.7 hPa | 0 mm | - | 402 W/m² | - |
| 1778371759 | 27.22° C | 12% | 1017.7 hPa | 0 mm | - | 419 W/m² | - |
| 1778371455 | 26.67° C | 12% | 1017.6 hPa | 0 mm | - | 438 W/m² | - |
| 1778371151 | 26.67° C | 14% | 1017.7 hPa | 0 mm | - | 455 W/m² | - |
| 1778370848 | 26.67° C | 12% | 1018 hPa | 0 mm | - | 474 W/m² | - |
| 1778370544 | 26.67° C | 12% | 1017.7 hPa | 0 mm | - | 491 W/m² | - |
| 1778370242 | 26.67° C | 13% | 1017.8 hPa | 0 mm | - | 469 W/m² | - |
| 1778369939 | 26.67° C | 14% | 1017.8 hPa | 0 mm | - | 520 W/m² | - |
| 1778369637 | 26.67° C | 13% | 1018.2 hPa | 0 mm | - | 537 W/m² | - |
| 1778369332 | 26.67° C | 13% | 1017.8 hPa | 0 mm | - | 552 W/m² | - |
| 1778369030 | 27.22° C | 13% | 1018 hPa | 0 mm | - | 571 W/m² | - |
| 1778368726 | 27.22° C | 13% | 1018.2 hPa | 0 mm | - | 587 W/m² | - |
| 1778368423 | 26.67° C | 13% | 1018 hPa | 0 mm | - | 603 W/m² | - |
| 1778368121 | 27.22° C | 13% | 1018.4 hPa | 0 mm | - | 621 W/m² | - |
| 1778367818 | 27.22° C | 13% | 1018.3 hPa | 0 mm | - | 636 W/m² | - |
| 1778367513 | 26.67° C | 14% | 1018.4 hPa | 0 mm | - | 653 W/m² | - |
| 1778367210 | 27.22° C | 13% | 1018.3 hPa | 0 mm | - | 670 W/m² | - |
| 1778366906 | 27.22° C | 13% | 1018.5 hPa | 0 mm | - | 685 W/m² | - |
| 1778366602 | 27.22° C | 14% | 1018.6 hPa | 0 mm | - | 700 W/m² | - |
| 1778366299 | 27.22° C | 14% | 1018.3 hPa | 0 mm | - | 714 W/m² | - |
| 1778365996 | 27.22° C | 13% | 1018.6 hPa | 0 mm | - | 729 W/m² | - |
* Rain latest hour (hover to see other rain measurements)
** Current wind speed in m/s (hover to see current wind gust speed)